Terug naar catalogus

STARLINK-37866

ActiefCommunicatieSSO
NORAD 69430·PAYLOAD·🇺🇸 United States

Gelanceerd Jun 7, 2026 vanaf Vandenberg Space Force Base

Loading…

Volgende Passages (komende 24 uur)

TLE

VersSource: CelesTrak SupGP

Epoch: Sep 14, 2026, 23:20 UTC

1 69430C 26126L   26257.97270833  .00079212  00000+0  24596-2 0  2575
2 69430  97.2844 119.3308 0001914  94.3603 141.3770 15.33389401    14

Volg STARLINK-37866 in realtime met AllMySat

Download on the App Store